Showing default

TIGRISAT, 40043

Orbit data source: Space-Track

TIGRISAT, 40043 is an Iraqi payload satellite in SSO that was launched on Thu, 19 Jun 2014 UTC via a DNEPR launch vehicle from the Orenburg, Russia (OREN). Payloads include a variety of satellites, spacecraft, and rockets equipped with specific instruments for various scientific and technological missions. These include communications satellites like Starlink; space stations such as the ISS; scientific satellites like the Hubble; Earth observation satellites from companies like Planet Labs, Umbra, and HawkEye 360; GPS; miniature CubeSats for education and research; and military/defense satellites.

Loading next visibility...
TIGRISAT details
Identifier
40043, 2014-033AK
Orbit
SSO
Last TLE update16 hours ago
Origin
Flag of IQROSAP/IQMOST (IQ / IRAQ)
ManufacturerRoma La Sapienza
MissionOperational Civil Technology
Bus & MotorCUBESAT 3U, Unknown motor
Mass3.6 kg wet, 3.6 kg dry
Launch date (UTC)
2014-06-19 (11 years ago)
Launch vehicle
DNEPR
Launch site
Orenburg, Russia (OREN)
Object type
Payload
Rocket body
Debris
Shape & HBRBox, 0.3 m
Radar Cross Section0.075 m², Small (<0.1 m²)

Expand to show TLE details & history

TLE from 16 hours ago
0 TIGRISAT
1 40043U 14033AK  25023.91551028  .00005904  00000-0  73989-3 0  9992
2 40043  97.7138 183.8548 0051830 304.1384  55.4920 14.81631775570410
Epoch: 2025-01-23T21:58Z
Definitive object data (Epoch: 2025-01-23T21:58:20.088Z)
Latitude0.00007°
Longitude90.78491°
Altitude606.771 km
Speed7.567 km/s
True Right ascension12h 15m 25s
True Declination0° 00' 00"
Sunlit
Object was in full shadow at TLE epoch
Visualization TLE readout
Latitude-81.34873°
Longitude-150.88259°
Altitude622.992 km
Speed7.562 km/s
Apparent Right ascension02h 11m 52s
Apparent Declination-66° 30' 18"
Sunlit
Object is in daylight
Visualization observer readout
Local Sidereal Time15:01:41
Azimuth169.27° S
Elevation-62.505°
Doppler factor1
Orbital elements
Apogee altitude657.486 km
Perigee altitude584.931 km
Semi-major axis6,999.345 km
Eccentricity0.005183
Inclination97.7138°
RAAN183.8548°
Arg. of periapsis304.1384°
True anomaly55.98322°
Mean anomaly55.492°
Eccentric anomaly55.73743°
Mean motion3.70644 °/min
BSTAR0.00073989
Orbital period97.13 mins
Loading maneuver chart data...
Loading historical data...
Loading historical data...
Loading historical data...
Loading historical data...
Loading historical data...
Loading historical data...
Loading historical data...

TIGRISAT Visibility forecast

Observer location: undefined°, undefined

Span
Click to sort rows by Start time (UTC) header in descending order
Start Az.
Max El. time (UTC)
Max El. Az.
Max El.
End time (UTC)
End Az.
7 mins2025-01-24 22:51:37.142Z31.6° NE2025-01-24 22:55:37.142Z110.026° ESE31.854°2025-01-24 22:58:37.142Z162.216° S
4 mins2025-01-25 00:29:37.142Z319.64° NNW2025-01-25 00:31:37.142Z285.2° WNW18.426°2025-01-25 00:33:37.142Z255.329° W
5 mins2025-01-25 09:47:37.142Z106.406° ESE2025-01-25 09:49:37.142Z62.949° ENE24.785°2025-01-25 09:52:37.142Z14.795° NNE
5 mins2025-01-25 11:23:37.142Z227.89° WSW2025-01-25 11:25:37.142Z267.534° W22.815°2025-01-25 11:28:37.142Z316.504° NNW
|